TimeEDT,TemperatureF,Dew PointF,Humidity,Sea Level PressureIn,VisibilityMPH,Wind Direction,Wind SpeedMPH,Gust SpeedMPH,PrecipitationIn,Events,Conditions,WindDirDegrees,DateUTC
12:54 AM,39.9,36.0,86,30.27,10.0,Calm,Calm,-,N/A,,Clear,0,2014-04-19 04:54:00
1:54 AM,37.9,36.0,93,30.26,10.0,Calm,Calm,-,N/A,,Clear,0,2014-04-19 05:54:00
2:54 AM,37.9,36.0,93,30.25,10.0,Calm,Calm,-,N/A,,Clear,0,2014-04-19 06:54:00
3:54 AM,37.0,35.1,93,30.25,10.0,South,3.5,-,N/A,,Clear,180,2014-04-19 07:54:00
4:54 AM,37.0,35.1,93,30.25,10.0,Calm,Calm,-,N/A,,Clear,0,2014-04-19 08:54:00
5:54 AM,37.0,35.1,93,30.25,10.0,Calm,Calm,-,N/A,,Clear,0,2014-04-19 09:54:00
6:54 AM,39.0,34.0,82,30.26,10.0,Calm,Calm,-,N/A,,Clear,0,2014-04-19 10:54:00
7:54 AM,45.0,36.0,71,30.28,10.0,NNW,3.5,-,N/A,,Clear,330,2014-04-19 11:54:00
8:54 AM,51.1,37.9,61,30.28,10.0,North,9.2,-,N/A,,Clear,10,2014-04-19 12:54:00
9:54 AM,54.0,36.0,51,30.30,10.0,NNW,8.1,17.3,N/A,,Clear,330,2014-04-19 13:54:00
10:54 AM,57.9,33.1,39,30.30,10.0,NNW,6.9,17.3,N/A,,Clear,340,2014-04-19 14:54:00
11:54 AM,60.1,33.1,36,30.29,10.0,NNW,10.4,17.3,N/A,,Clear,330,2014-04-19 15:54:00
12:54 PM,63.0,27.0,26,30.26,10.0,NW,11.5,18.4,N/A,,Clear,320,2014-04-19 16:54:00
1:54 PM,64.0,23.0,21,30.25,10.0,NNW,10.4,17.3,N/A,,Clear,340,2014-04-19 17:54:00
2:54 PM,64.9,25.0,22,30.25,10.0,NNE,9.2,-,N/A,,Clear,20,2014-04-19 18:54:00
3:54 PM,64.0,26.1,24,30.24,10.0,Variable,5.8,-,N/A,,Clear,0,2014-04-19 19:54:00
4:54 PM,64.9,21.9,19,30.24,10.0,NNE,10.4,-,N/A,,Clear,30,2014-04-19 20:54:00
5:54 PM,64.0,21.9,20,30.25,10.0,North,8.1,-,N/A,,Clear,360,2014-04-19 21:54:00
6:54 PM,61.0,24.1,24,30.25,10.0,North,4.6,-,N/A,,Clear,10,2014-04-19 22:54:00
7:54 PM,57.9,23.0,26,30.27,10.0,Calm,Calm,-,N/A,,Clear,0,2014-04-19 23:54:00
8:54 PM,55.0,23.0,29,30.29,10.0,North,3.5,-,N/A,,Clear,10,2014-04-20 00:54:00
9:54 PM,53.1,23.0,31,30.31,10.0,North,3.5,-,N/A,,Clear,10,2014-04-20 01:54:00
10:54 PM,51.1,23.0,33,30.32,10.0,NNE,5.8,-,N/A,,Clear,30,2014-04-20 02:54:00
11:54 PM,50.0,21.9,33,30.33,10.0,NE,5.8,-,N/A,,Clear,40,2014-04-20 03:54:00